When you browse on this site, cookies collect data to enhance your experience and personalize the content and advertising you see.
Visit our Privacy Policy to learn more. By continuing to use the site, you agree to this use of cookies and data.
  • In Hungary
  • List of Countries
  • For 7 days
  • Water Temperature
  • Weather Map
  • News
  • Weather Widgets
  • user-avatar
    Login

    Hourly Weather Middlesbrough

    Today, 1 June, Monday

    Time Temperature Precipitation Wind Pressure Humidity
    00:00 +10°C° 0 mm 1 mps 769 mmHg 87%
    01:00 +10°C° 0 mm 1 mps 769 mmHg 86%
    02:00 +10°C° 0 mm 1 mps 769 mmHg 86%
    03:00 +9°C° 0 mm 1 mps 769 mmHg 85%
    04:00 +11°C° 0 mm 1 mps 769 mmHg 83%
    05:00 +12°C° 0 mm 1 mps 769 mmHg 80%
    06:00 +13°C° 0 mm 2 mps 769 mmHg 78%
    07:00 +15°C° 0 mm 2 mps 769 mmHg 74%
    08:00 +16°C° 0 mm 3 mps 769 mmHg 70%
    09:00 +18°C° 0 mm 4 mps 769 mmHg 66%
    10:00 +18°C° 0 mm 4 mps 769 mmHg 65%
    11:00 +19°C° 0 mm 4 mps 769 mmHg 64%
    12:00 +19°C° 0 mm 5 mps 769 mmHg 63%
    13:00 +19°C° 0 mm 5 mps 769 mmHg 60%
    14:00 +19°C° 0 mm 5 mps 769 mmHg 58%
    15:00 +19°C° 0 mm 5 mps 769 mmHg 55%
    16:00 +18°C° 0 mm 4 mps 769 mmHg 59%
    17:00 +18°C° 0 mm 4 mps 768 mmHg 63%
    18:00 +17°C° 0 mm 4 mps 768 mmHg 66%
    19:00 +14°C° 0 mm 3 mps 768 mmHg 73%
    20:00 +13°C° 0 mm 2 mps 769 mmHg 80%
    21:00 +10°C° 0 mm 2 mps 769 mmHg 87%
    22:00 +11°C° 0 mm 1 mps 768 mmHg 87%
    23:00 +11°C° 0 mm 1 mps 768 mmHg 87%

    Tomorrow, 2 June, Tuesday

    Time Temperature Precipitation Wind Pressure Humidity
    00:00 +11°C° 0 mm 1 mps 768 mmHg 87%
    01:00 +10°C° 0 mm 1 mps 768 mmHg 88%
    02:00 +10°C° 0 mm 1 mps 767 mmHg 88%
    03:00 +10°C° 0 mm 1 mps 767 mmHg 88%
    04:00 +11°C° 0 mm 1 mps 767 mmHg 86%
    05:00 +12°C° 0 mm 1 mps 767 mmHg 83%
    06:00 +13°C° 0 mm 1 mps 766 mmHg 80%
    07:00 +15°C° 0 mm 1 mps 766 mmHg 75%
    08:00 +16°C° 0 mm 2 mps 766 mmHg 69%
    09:00 +17°C° 0 mm 2 mps 765 mmHg 64%
    10:00 +18°C° 0 mm 2 mps 765 mmHg 60%
    11:00 +19°C° 0 mm 2 mps 765 mmHg 57%
    12:00 +20°C° 0 mm 2 mps 764 mmHg 53%
    13:00 +20°C° 0 mm 2 mps 764 mmHg 53%
    14:00 +20°C° 0 mm 2 mps 763 mmHg 53%
    15:00 +20°C° 0 mm 2 mps 763 mmHg 53%
    16:00 +20°C° 0 mm 2 mps 762 mmHg 57%
    17:00 +19°C° 0 mm 2 mps 762 mmHg 61%
    18:00 +19°C° 0 mm 2 mps 761 mmHg 65%
    19:00 +17°C° 0.2 mm 2 mps 761 mmHg 71%
    20:00 +15°C° 0.2 mm 2 mps 761 mmHg 77%
    21:00 +13°C° 0.2 mm 1 mps 760 mmHg 83%
    22:00 +13°C° 0.2 mm 1 mps 760 mmHg 84%
    23:00 +13°C° 0.2 mm 1 mps 760 mmHg 85%

    Day after tomorrow, 3 June, Wednesday

    Time Temperature Precipitation Wind Pressure Humidity
    00:00 +12°C° 0.2 mm 1 mps 759 mmHg 86%
    01:00 +12°C° 0.1 mm 1 mps 759 mmHg 87%
    02:00 +12°C° 0.1 mm 2 mps 759 mmHg 87%
    03:00 +11°C° 0.1 mm 3 mps 758 mmHg 88%
    04:00 +11°C° 0.3 mm 4 mps 758 mmHg 89%
    05:00 +10°C° 0.3 mm 5 mps 758 mmHg 91%
    06:00 +10°C° 0.3 mm 6 mps 758 mmHg 93%
    07:00 +10°C° 0.2 mm 6 mps 758 mmHg 92%
    08:00 +10°C° 0.2 mm 6 mps 759 mmHg 91%
    09:00 +11°C° 0.2 mm 6 mps 759 mmHg 89%
    10:00 +11°C° 0.1 mm 7 mps 759 mmHg 87%
    11:00 +12°C° 0.1 mm 7 mps 759 mmHg 84%
    12:00 +12°C° 0.1 mm 7 mps 759 mmHg 81%
    13:00 +12°C° 0.1 mm 7 mps 759 mmHg 81%
    14:00 +12°C° 0.1 mm 7 mps 758 mmHg 81%
    15:00 +12°C° 0.1 mm 8 mps 758 mmHg 81%
    16:00 +11°C° 0 mm 8 mps 758 mmHg 82%
    17:00 +10°C° 0 mm 8 mps 758 mmHg 83%
    18:00 +10°C° 0 mm 7 mps 758 mmHg 84%
    19:00 +9°C° 0 mm 7 mps 758 mmHg 85%
    20:00 +8°C° 0 mm 6 mps 758 mmHg 85%
    21:00 +8°C° 0 mm 5 mps 758 mmHg 86%
    22:00 +8°C° 0 mm 5 mps 757 mmHg 86%
    23:00 +7°C° 0 mm 4 mps 757 mmHg 86%

    4 June, Thursday

    Time Temperature Precipitation Wind Pressure Humidity
    00:00 +7°C° 0 mm 4 mps 757 mmHg 87%
    01:00 +6°C° 0 mm 4 mps 756 mmHg 88%
    02:00 +7°C° 0 mm 3 mps 756 mmHg 90%
    03:00 +5°C° 0 mm 3 mps 755 mmHg 91%
    04:00 +7°C° 0 mm 3 mps 755 mmHg 87%
    05:00 +8°C° 0 mm 2 mps 754 mmHg 84%
    06:00 +10°C° 0 mm 1 mps 754 mmHg 80%
    07:00 +11°C° 0 mm 1 mps 754 mmHg 77%
    08:00 +12°C° 0 mm 1 mps 753 mmHg 74%
    09:00 +12°C° 0 mm 2 mps 753 mmHg 71%
    10:00 +14°C° 0.1 mm 2 mps 753 mmHg 68%
    11:00 +15°C° 0.1 mm 2 mps 752 mmHg 65%
    12:00 +16°C° 0.1 mm 2 mps 752 mmHg 62%
    13:00 +16°C° 0.1 mm 3 mps 752 mmHg 62%
    14:00 +16°C° 0.1 mm 3 mps 751 mmHg 63%
    15:00 +16°C° 0.1 mm 3 mps 751 mmHg 63%
    16:00 +15°C° 0.1 mm 4 mps 750 mmHg 67%
    17:00 +14°C° 0.1 mm 5 mps 750 mmHg 71%
    18:00 +14°C° 0.1 mm 5 mps 750 mmHg 75%
    19:00 +13°C° 0.1 mm 5 mps 749 mmHg 79%
    20:00 +12°C° 0.1 mm 5 mps 749 mmHg 84%
    21:00 +10°C° 0.1 mm 5 mps 749 mmHg 88%
    22:00 +10°C° 0.7 mm 5 mps 748 mmHg 90%
    23:00 +10°C° 0.7 mm 5 mps 747 mmHg 92%

    5 June, Friday

    Time Temperature Precipitation Wind Pressure Humidity
    00:00 +10°C° 0.7 mm 6 mps 746 mmHg 94%
    01:00 +10°C° 0.7 mm 7 mps 745 mmHg 93%
    02:00 +10°C° 0.7 mm 7 mps 744 mmHg 93%
    03:00 +10°C° 0.7 mm 8 mps 743 mmHg 92%
    04:00 +10°C° 0.2 mm 8 mps 742 mmHg 90%
    05:00 +10°C° 0.2 mm 8 mps 741 mmHg 89%
    06:00 +11°C° 0.2 mm 8 mps 740 mmHg 87%
    07:00 +11°C° 0.1 mm 10 mps 740 mmHg 81%
    08:00 +11°C° 0.1 mm 11 mps 740 mmHg 75%
    09:00 +12°C° 0.1 mm 13 mps 739 mmHg 69%
    10:00 +10°C° 0.2 mm 12 mps 740 mmHg 70%
    11:00 +9°C° 0.2 mm 11 mps 741 mmHg 72%
    12:00 +8°C° 0.2 mm 11 mps 741 mmHg 74%
    13:00 +9°C° 0.2 mm 10 mps 742 mmHg 73%
    14:00 +10°C° 0.2 mm 8 mps 743 mmHg 72%
    15:00 +10°C° 0.2 mm 7 mps 744 mmHg 71%
    16:00 +10°C° 0.6 mm 6 mps 744 mmHg 75%
    17:00 +10°C° 0.6 mm 5 mps 745 mmHg 80%
    18:00 +10°C° 0.6 mm 4 mps 745 mmHg 84%
    19:00 +10°C° 0.4 mm 4 mps 745 mmHg 85%
    20:00 +8°C° 0.4 mm 4 mps 746 mmHg 87%
    21:00 +7°C° 0.4 mm 4 mps 746 mmHg 88%
    22:00 +6°C° 0.1 mm 5 mps 746 mmHg 88%
    23:00 +4°C° 0.1 mm 6 mps 746 mmHg 88%

    6 June, Saturday

    Time Temperature Precipitation Wind Pressure Humidity
    00:00 +3°C° 0.1 mm 7 mps 746 mmHg 88%
    01:00 +3°C° 0 mm 7 mps 746 mmHg 88%
    02:00 +2°C° 0 mm 7 mps 746 mmHg 88%
    03:00 +2°C° 0 mm 7 mps 746 mmHg 88%
    04:00 +2°C° 0 mm 8 mps 746 mmHg 85%
    05:00 +4°C° 0 mm 8 mps 747 mmHg 83%
    06:00 +5°C° 0 mm 9 mps 747 mmHg 80%
    07:00 +6°C° 0 mm 9 mps 747 mmHg 74%
    08:00 +7°C° 0 mm 10 mps 746 mmHg 67%
    09:00 +8°C° 0 mm 11 mps 746 mmHg 61%
    10:00 +9°C° 0 mm 11 mps 747 mmHg 61%
    11:00 +9°C° 0 mm 11 mps 747 mmHg 61%
    12:00 +11°C° 0 mm 11 mps 747 mmHg 61%
    13:00 +9°C° 0.1 mm 11 mps 747 mmHg 68%
    14:00 +8°C° 0.1 mm 12 mps 747 mmHg 74%
    15:00 +7°C° 0.1 mm 12 mps 747 mmHg 80%
    16:00 +8°C° 0.1 mm 11 mps 747 mmHg 80%
    17:00 +8°C° 0.1 mm 11 mps 747 mmHg 80%
    18:00 +8°C° 0.1 mm 10 mps 747 mmHg 80%
    19:00 +8°C° 0 mm 10 mps 747 mmHg 80%
    20:00 +8°C° 0 mm 11 mps 747 mmHg 80%
    21:00 +8°C° 0 mm 11 mps 747 mmHg 80%
    22:00 +8°C° 0.2 mm 10 mps 747 mmHg 84%
    23:00 +8°C° 0.2 mm 9 mps 747 mmHg 87%
    Show more